GFSCGP_sfc_rhum_000.txt.gz
RH
29 30 33 27 24 24 26 30 29 28 21 22 22 23 19 31 34 38 42 48 54 55 54 65 70 73 77 80 75 77 76 78 86 92 93 96 98 99 99 99 96 95 97 97
33 34 29 24 26 26 30 32 32 28 27 25 26 26 28 33 33 34 40 48 54 57 59 63 71 78 73 74 80 76 74 79 85 95 96 96 98 99 99 99 98 99 98 97
35 32 26 25 28 29 30 32 32 30 32 28 31 30 28 29 39 43 42 42 53 55 61 63 66 70 76 66 72 78 77 76 77 86 95 96 97 98 98 98 99 99 96 98
32 27 26 30 29 28 36 28 29 32 36 38 28 45 32 32 38 46 42 48 49 54 59 62 64 63 76 67 74 75 76 76 76 82 93 94 98 99 100 100 99 99 97 96
32 30 31 32 27 27 30 28 29 34 37 38 37 48 35 51 41 41 50 43 49 52 59 62 61 57 68 71 76 80 77 82 81 81 91 95 96 98 98 98 97 98 98 97
29 26 26 26 24 25 26 29 35 46 45 51 32 40 39 37 36 38 51 42 47 51 59 62 60 60 64 71 78 80 82 85 81 84 86 88 87 85 92 95 98 99 99 99
31 30 27 23 28 27 26 34 46 55 57 56 41 42 37 29 30 34 44 43 45 47 57 66 63 61 66 67 76 80 82 81 81 83 83 84 81 82 83 86 97 99 99 100
37 37 27 23 25 28 28 32 43 47 48 35 44 45 34 34 40 44 44 42 44 49 53 66 64 62 62 63 76 82 79 79 79 79 79 80 78 77 78 78 89 97 100 99
41 36 28 22 21 22 31 32 28 33 49 48 45 43 44 49 52 53 51 48 47 50 60 66 64 64 64 65 71 84 82 77 76 78 81 80 79 73 75 78 79 94 97 97
35 42 28 23 22 26 24 24 31 42 45 53 45 50 55 39 44 57 62 54 50 53 59 65 64 64 64 66 71 83 82 73 75 74 78 74 73 71 72 77 79 78 79 79
34 37 39 32 40 33 34 42 47 34 41 48 61 58 50 46 49 57 59 49 48 48 51 58 62 62 60 64 72 81 81 72 76 72 75 74 72 71 70 74 76 77 80 78
31 38 44 47 46 41 29 34 42 47 43 54 53 48 44 57 61 60 57 46 48 46 47 55 58 61 61 64 71 79 80 70 71 70 74 74 70 68 70 71 74 75 77 78
32 41 47 44 66 59 49 54 50 59 68 71 62 47 47 59 55 54 55 46 45 48 57 60 61 60 61 64 69 77 75 68 67 72 76 77 70 67 70 72 73 74 77 78
31 40 34 35 37 57 56 63 57 49 69 57 65 46 47 53 50 56 58 46 44 45 51 54 58 60 62 63 65 74 73 69 71 71 76 77 72 67 69 72 71 72 75 79
31 38 39 30 25 42 32 46 56 49 43 48 44 56 40 48 50 50 52 46 44 46 48 49 51 56 64 66 66 69 68 71 73 72 76 77 72 68 70 73 71 73 76 78
51 45 40 38 32 32 33 36 49 41 52 56 44 51 48 57 59 54 50 42 40 40 41 42 46 50 59 61 62 66 66 68 74 73 73 73 68 66 73 74 72 74 75 78
48 64 66 56 55 50 50 33 49 50 54 46 50 43 55 67 63 54 54 41 39 38 38 40 44 47 49 55 58 65 62 68 73 72 71 70 68 65 72 71 72 74 76 77
56 68 78 91 76 75 53 45 38 41 47 50 49 47 46 42 43 41 51 45 41 37 36 37 38 44 49 54 59 61 58 64 68 72 69 68 64 63 72 73 73 77 77 78
66 82 91 92 94 68 64 63 55 53 51 47 43 47 45 48 52 44 50 45 41 37 33 33 35 40 48 53 54 54 57 62 66 68 68 67 61 66 73 73 77 78 76 76
85 75 74 97 87 82 64 57 55 46 59 55 45 53 50 52 53 38 42 49 46 52 32 32 35 39 47 51 55 53 53 59 64 63 64 66 60 64 72 76 80 81 76 71
92 91 76 92 85 74 56 56 47 63 55 54 49 46 60 52 38 39 41 45 49 51 41 36 37 39 44 48 52 51 50 53 52 56 62 67 67 67 71 79 82 81 76 73
85 89 88 91 82 70 60 59 56 54 54 52 60 56 57 46 51 46 44 45 48 51 47 34 36 38 42 46 47 49 50 45 46 54 61 67 72 57 62 76 81 80 79 77
67 67 71 66 65 56 57 54 52 53 49 58 58 61 52 50 51 47 50 50 48 46 39 31 34 40 42 44 42 45 46 44 45 56 65 70 72 64 68 71 79 78 82 74
72 70 67 61 58 60 57 57 59 57 55 66 61 57 59 55 59 55 56 52 48 48 41 33 34 36 42 41 41 40 42 40 42 54 62 67 70 72 74 60 65 68 77 76
57 66 69 62 63 63 60 52 58 63 64 65 62 58 60 62 61 59 58 55 52 47 46 36 32 35 37 38 38 38 41 40 44 49 54 62 65 72 72 66 62 58 66 61
74 68 58 54 58 55 51 48 56 68 71 67 62 64 64 61 59 62 57 56 53 51 49 42 35 37 34 34 35 36 38 40 43 46 49 53 56 69 65 68 68 80 72 76

GFSCGP_sfc_rhum_006.txt.gz
RH
18 17 20 16 16 15 14 16 17 15 14 16 17 16 14 13 12 14 17 21 23 25 24 31 36 37 36 38 45 51 51 56 54 49 51 64 73 74 88 91 92 94 74 68
19 21 15 13 14 16 17 19 19 16 15 17 16 16 14 13 12 14 17 22 24 26 27 34 39 39 38 35 41 49 48 51 53 50 62 64 66 60 78 96 96 90 79 70
19 15 13 15 17 19 18 20 20 20 17 16 17 18 15 13 12 14 18 18 22 26 30 35 38 40 35 36 40 42 48 52 57 66 73 79 78 65 87 90 93 94 87 75
16 11 14 18 18 17 20 16 17 19 21 20 17 23 17 14 13 13 16 20 21 24 28 32 37 39 36 34 37 40 46 55 54 61 57 73 82 66 72 90 91 93 79 90
17 14 18 19 16 14 17 13 17 19 20 21 19 22 16 12 14 11 10 17 22 24 27 31 34 34 29 34 38 43 46 51 59 62 62 51 65 86 80 78 86 77 85 79
14 12 14 14 12 13 13 18 19 20 19 27 18 17 14 11 13 12 11 17 22 23 25 28 33 30 29 33 35 42 44 48 54 56 60 65 80 77 94 92 82 74 87 91
17 16 14 13 14 15 16 22 26 31 28 27 19 18 15 13 11 12 13 14 23 24 25 29 33 29 30 35 37 40 40 44 45 50 55 58 64 76 88 93 95 88 96 88
18 20 17 15 13 17 18 20 21 35 29 20 20 22 13 11 12 17 19 22 25 26 25 29 30 31 27 32 38 39 39 40 40 44 51 54 57 46 78 76 90 95 89 98
18 17 13 14 12 12 17 21 16 22 20 22 16 17 15 12 14 17 22 27 29 28 29 28 29 31 27 32 40 43 41 38 39 42 50 52 52 55 59 76 75 73 88 88
17 23 15 14 13 12 14 14 24 20 34 35 19 20 16 14 14 24 27 29 30 29 27 27 29 32 27 31 38 44 43 35 40 40 42 42 47 48 52 60 67 66 67 75
15 20 20 15 20 16 16 18 20 19 18 26 30 20 15 14 18 21 25 27 29 28 25 27 27 28 26 30 32 43 43 38 37 39 42 46 43 44 48 50 52 59 66 60
16 21 26 21 14 12 14 17 21 23 30 22 20 18 13 16 19 23 25 26 25 24 23 24 26 26 25 30 32 38 42 35 31 33 38 45 42 44 48 49 51 53 60 60
18 23 26 21 24 19 17 15 17 22 24 26 22 20 14 18 22 26 27 25 26 25 23 24 26 24 24 28 29 31 38 34 27 28 34 44 46 46 50 52 57 45 58 53
27 24 26 24 24 20 24 17 16 21 26 24 20 18 14 17 19 24 26 26 24 25 25 25 26 23 23 26 26 29 33 31 27 27 30 40 48 46 48 48 47 42 39 44
27 31 21 15 12 16 17 16 16 21 21 23 18 17 16 15 16 18 26 26 24 24 24 26 28 24 23 26 27 28 31 29 28 28 31 38 46 43 43 44 47 47 42 37
29 29 21 20 13 13 16 16 17 17 17 18 17 18 14 13 12 19 25 26 25 23 22 24 26 24 24 26 27 29 31 30 30 31 32 32 34 38 43 46 50 50 46 40
29 28 27 27 16 15 22 16 16 18 16 17 19 16 13 14 18 20 24 25 25 24 21 23 26 26 26 26 29 31 31 30 32 31 31 32 31 35 41 39 42 49 54 54
35 34 26 24 21 36 18 13 13 15 15 15 15 14 13 13 16 15 17 22 24 24 22 22 25 28 27 25 27 29 28 30 28 29 30 30 27 29 36 40 45 56 59 58
30 33 27 34 33 20 21 20 15 17 18 14 15 13 11 12 15 16 16 20 23 25 24 22 23 28 29 26 28 28 28 29 26 25 28 28 25 28 34 39 49 55 58 59
30 32 28 36 48 36 20 17 15 15 21 15 16 16 15 13 21 14 20 21 21 23 24 24 24 27 31 28 28 31 29 28 26 23 24 26 25 29 35 40 51 54 52 50
34 34 38 38 48 25 21 16 21 30 23 18 17 19 18 19 19 16 16 23 21 24 25 25 26 28 36 31 29 31 29 29 24 21 21 26 30 33 39 47 51 54 50 41
32 37 32 34 37 36 22 23 27 24 32 21 22 21 23 24 22 21 22 23 22 25 25 24 27 29 33 31 30 30 31 27 24 21 21 27 34 28 33 50 52 50 49 49
29 24 28 26 27 36 28 24 28 21 21 22 23 24 24 24 23 22 23 24 23 24 26 23 25 30 33 32 29 31 30 26 24 24 26 31 35 31 35 47 50 41 50 34
26 24 28 30 24 25 22 26 25 24 22 21 22 23 25 26 23 23 24 24 23 22 26 24 24 28 34 34 31 30 26 24 23 28 30 33 37 37 34 34 36 31 35 30
20 20 27 30 27 20 18 18 21 25 26 26 21 20 21 21 22 22 22 24 22 21 21 25 25 27 30 32 32 28 24 24 28 32 32 35 33 41 36 33 29 27 37 30
26 28 21 22 21 24 22 18 15 26 27 25 21 22 22 21 21 21 20 22 23 22 22 25 27 26 26 28 29 28 23 24 32 37 32 30 27 34 29 28 27 56 60 62

GFSCGP_sfc_rhum_009.txt.gz
RH
13 16 18 16 15 13 13 14 14 12 11 13 15 15 14 12 11 12 12 12 16 18 19 24 30 33 32 35 44 45 46 52 52 50 58 73 82 54 62 76 81 76 70 64
15 20 14 12 12 13 14 15 15 13 12 14 16 17 14 11 11 11 11 12 16 20 21 25 33 36 36 37 40 44 44 50 55 52 61 60 72 66 58 72 76 71 63 72
16 14 12 11 13 14 14 16 16 16 14 14 17 17 14 11 11 10 10 12 15 20 24 28 34 38 35 35 42 42 45 52 58 62 60 64 68 69 83 75 64 79 70 65
13 10 12 12 13 12 17 12 13 16 18 20 14 20 16 13 11 11 11 13 15 19 23 28 33 37 36 31 38 41 46 52 54 60 55 70 81 90 85 80 86 91 70 72
12 11 12 13 13 12 14 12 13 15 19 19 17 19 16 12 12 11 10 11 16 19 23 27 30 34 30 29 38 42 47 52 54 59 61 68 78 82 90 92 82 87 86 76
8 8 9 10 10 12 11 12 14 15 18 24 18 17 16 11 11 10 10 11 17 19 22 25 29 31 29 28 35 41 46 50 51 52 57 64 71 77 86 91 87 74 94 94
10 9 9 10 14 12 12 17 21 29 26 26 15 16 17 12 9 10 11 12 17 19 22 26 30 28 30 31 34 39 42 45 45 50 52 57 62 73 81 84 80 85 92 97
14 15 11 11 14 13 14 16 19 33 26 18 16 20 14 10 9 10 11 16 20 21 23 26 29 28 26 31 33 34 39 42 42 45 51 54 56 62 64 74 86 96 76 86
14 14 9 11 11 11 14 17 14 19 17 17 16 15 13 10 10 12 14 20 24 25 25 27 26 28 26 31 35 38 38 39 40 44 51 52 53 60 77 74 84 74 76 90
12 18 10 10 11 10 12 12 19 17 32 33 18 18 15 15 12 17 20 24 26 24 24 25 25 30 25 29 36 38 37 36 38 40 42 43 47 50 54 54 61 70 78 70
11 16 14 12 17 14 11 12 16 18 17 23 27 18 14 14 14 17 20 23 24 23 22 23 24 27 22 26 29 39 37 32 36 38 41 43 43 47 49 53 57 67 73 79
12 18 19 16 11 12 12 13 16 20 28 18 18 17 12 13 12 16 17 21 20 21 20 21 23 26 21 26 29 35 37 29 30 34 37 40 41 45 51 53 57 63 63 76
15 21 25 20 16 14 15 12 14 19 22 24 20 18 11 13 14 15 17 19 19 20 20 21 22 23 20 25 26 29 33 29 26 26 35 42 42 46 53 55 55 55 56 64
26 24 25 21 21 16 19 14 13 18 24 22 18 16 15 15 15 16 17 20 19 20 22 21 23 22 19 24 23 26 30 27 25 25 31 43 43 44 48 47 46 47 48 53
24 31 20 15 12 13 14 14 12 16 17 22 19 17 15 13 14 14 17 20 20 19 20 22 24 22 19 24 24 24 27 26 24 24 28 41 42 40 44 44 43 41 40 40
26 32 21 18 12 11 16 14 14 12 13 15 16 17 12 11 10 13 17 19 21 20 19 20 23 21 20 23 23 25 28 26 24 26 27 34 37 35 41 46 46 44 40 38
26 27 29 26 14 12 17 14 14 14 12 14 17 16 12 12 12 13 16 18 20 20 18 20 23 23 22 22 25 26 28 25 26 27 26 27 33 34 38 38 40 44 49 48
33 35 23 24 20 30 14 10 11 14 14 13 14 13 13 12 12 11 11 17 19 20 18 19 22 24 22 21 23 26 25 26 24 25 25 23 26 32 35 36 42 54 56 54
26 34 26 29 26 18 13 12 12 15 16 14 14 13 12 11 11 13 11 14 18 20 19 18 21 24 24 22 23 25 25 25 23 23 24 22 21 29 35 39 50 56 58 59
21 30 33 27 33 28 17 11 10 12 18 13 13 14 14 12 12 12 13 12 16 18 19 18 20 23 26 25 25 28 25 25 23 21 22 22 20 26 34 43 54 56 55 53
32 34 34 26 36 19 13 12 13 23 21 17 14 14 15 15 12 14 12 14 16 17 19 20 21 26 32 29 30 28 26 26 22 18 19 22 24 31 38 51 55 56 53 47
27 36 30 28 28 27 13 13 20 21 17 16 14 14 16 15 13 13 14 17 18 18 19 19 21 25 31 27 29 28 30 24 20 18 19 23 29 26 30 51 52 51 55 52
28 22 26 24 23 23 15 17 21 18 18 17 17 15 14 15 15 13 16 18 18 18 19 19 21 25 30 30 27 31 31 23 21 20 22 26 30 27 34 48 52 43 53 38
26 20 23 27 28 23 19 18 18 17 16 16 15 17 17 17 16 16 18 18 18 18 20 19 22 24 29 31 28 28 25 22 21 24 27 29 33 32 37 35 38 34 37 32
34 33 26 26 20 22 18 18 18 17 16 20 19 16 16 17 18 16 17 19 18 19 20 20 22 24 26 29 28 26 24 23 26 31 29 33 30 38 37 36 31 28 38 30
30 45 29 28 24 24 21 17 15 18 20 19 19 16 16 15 16 16 16 18 19 18 18 21 22 23 23 25 27 26 22 24 30 34 29 26 25 31 25 29 29 54 55 55

GFSCGP_sfc_rhum_015.txt.gz
RH
19 20 20 22 17 20 20 22 22 19 15 16 22 20 20 20 19 21 23 26 28 33 41 45 50 53 56 61 67 69 73 72 80 92 92 94 94 94 95 96 92 92 92 87
16 17 12 17 17 20 23 22 22 18 15 22 22 23 21 21 20 21 22 25 30 42 42 46 57 57 58 60 64 74 66 76 80 92 94 94 94 95 95 94 90 88 89 92
16 14 11 17 21 22 22 25 23 22 19 17 22 27 24 21 20 19 20 23 35 38 45 48 53 61 62 61 68 68 72 76 81 83 93 94 94 96 96 95 96 95 88 87
14 10 12 16 21 19 25 19 18 19 23 32 25 37 30 23 22 20 17 28 36 37 43 48 55 65 60 62 60 70 73 78 81 82 90 89 95 97 97 94 96 98 95 86
16 12 13 14 16 15 20 17 17 19 24 29 26 35 30 25 26 22 20 23 37 39 43 50 57 58 58 56 68 70 74 77 79 82 84 94 94 97 96 94 93 94 94 93
14 10 10 11 10 12 15 18 20 20 23 42 31 33 28 30 24 19 18 28 35 38 44 51 53 55 58 62 65 76 76 78 76 77 86 89 92 95 96 95 97 97 98 97
16 13 10 9 12 11 17 22 34 51 42 50 24 29 28 25 22 16 30 35 38 38 44 52 54 56 57 63 69 70 73 73 71 74 81 89 89 91 93 94 97 97 98 98
22 23 13 9 10 14 15 21 31 50 54 37 24 30 24 21 17 19 26 31 35 41 44 50 52 55 50 59 67 64 72 71 70 76 82 90 88 94 92 94 97 97 98 97
20 20 12 9 8 10 17 24 20 31 37 37 29 28 26 21 19 19 32 35 42 44 48 50 51 53 53 61 62 66 72 65 72 75 75 89 89 88 92 90 94 97 94 96
25 27 13 10 9 10 12 19 28 41 42 50 34 34 40 24 20 29 41 44 49 49 49 48 49 53 57 58 58 67 67 64 68 71 76 73 84 85 91 95 93 94 94 92
17 32 25 12 13 12 14 19 28 27 31 45 49 44 30 22 28 34 42 43 45 44 46 47 50 52 55 60 60 66 61 64 64 67 65 75 74 80 90 92 92 96 96 94
14 34 29 25 11 10 14 22 30 27 43 34 39 40 20 33 36 35 40 39 47 43 46 45 48 48 52 58 60 63 62 63 61 64 62 72 77 83 89 93 92 91 94 93
14 21 45 34 24 15 16 19 21 34 37 40 43 43 26 23 31 33 39 38 38 39 41 43 44 42 44 56 57 58 62 57 58 64 61 76 82 79 85 94 93 88 92 94
25 22 21 39 28 20 18 21 18 33 42 33 34 28 31 24 27 37 35 35 35 34 36 39 42 42 40 46 50 55 56 51 53 60 60 76 79 76 80 80 93 90 90 90
42 21 28 19 19 21 17 19 19 22 30 28 27 29 27 23 24 32 33 33 33 33 36 38 41 39 42 46 48 50 53 47 52 62 62 72 75 78 77 76 80 86 85 85
51 29 20 24 18 16 18 17 18 18 20 26 23 23 23 23 22 30 31 28 29 30 31 34 37 34 39 41 47 46 51 47 50 61 63 65 64 68 78 71 70 80 83 83
63 71 31 28 19 21 26 19 18 18 21 19 22 23 24 27 21 27 29 27 27 27 28 32 35 31 37 40 41 52 54 44 49 58 58 58 61 69 71 67 71 77 86 83
61 66 57 31 26 36 26 19 16 18 18 20 21 19 22 22 23 28 25 27 26 25 27 31 34 32 38 41 46 52 43 42 44 50 52 53 57 64 67 71 76 86 91 91
45 60 73 45 35 30 24 21 20 24 23 17 20 19 17 18 22 27 25 26 27 26 27 30 34 35 44 36 47 46 39 39 39 44 45 46 51 60 67 78 80 86 90 92
41 51 65 57 50 34 29 21 17 22 29 24 22 22 21 23 22 26 26 26 29 29 28 32 37 31 35 37 43 44 44 39 38 40 36 41 50 57 65 85 86 88 88 87
49 58 60 58 57 35 22 21 21 28 34 27 21 26 26 26 30 24 25 27 29 29 30 33 36 32 32 37 42 41 49 40 36 35 34 36 54 58 70 87 91 90 89 84
66 60 59 50 58 42 20 21 26 28 34 29 30 30 30 28 28 26 31 32 31 30 32 32 35 34 38 37 38 42 50 42 36 36 36 36 56 46 70 80 92 89 92 89
82 81 87 66 47 39 31 34 34 35 28 28 30 34 30 33 29 27 24 34 29 30 30 31 34 39 39 38 35 42 46 43 36 38 44 43 48 52 76 77 91 90 92 95
77 73 92 81 60 48 40 48 50 35 29 29 30 32 29 29 25 25 32 32 29 30 29 30 37 37 39 38 36 38 46 40 37 44 52 47 44 66 70 69 75 77 90 92
88 82 86 82 64 62 54 54 52 56 49 31 26 27 26 27 26 25 35 27 25 30 29 31 37 39 38 38 40 41 39 39 40 50 50 43 42 61 68 68 71 71 80 76
82 81 79 91 57 71 62 48 59 63 65 68 80 34 28 23 25 23 28 29 30 32 28 32 36 40 38 36 38 38 35 38 46 52 49 45 44 64 57 66 75 85 82 79

GFSCGP_sfc_rhum_021.txt.gz
RH
22 30 44 33 29 25 28 34 36 30 24 25 28 29 24 21 24 23 25 28 28 36 45 61 56 60 72 79 80 80 85 90 91 94 93 96 95 96 96 98 95 94 93 92
25 24 24 28 28 30 31 31 31 25 24 25 28 27 22 23 22 26 26 26 40 59 69 61 60 62 68 78 80 82 80 89 91 95 95 96 97 97 98 97 96 95 94 94
19 16 16 26 29 33 31 29 28 27 29 28 32 32 29 22 27 25 29 28 40 46 70 63 60 68 78 80 84 82 84 89 92 90 95 96 96 97 97 97 96 96 96 95
16 11 17 21 29 21 26 21 21 25 34 41 34 49 36 29 26 25 21 24 31 58 65 59 61 77 73 78 84 82 88 91 87 90 92 91 97 98 98 98 97 97 94 92
23 15 15 20 19 18 22 21 28 31 41 46 36 46 37 34 29 27 23 24 47 62 63 63 64 64 67 77 84 86 90 91 90 90 91 95 94 98 97 97 95 96 96 94
16 14 12 15 17 18 17 25 33 35 40 48 33 43 41 32 28 25 25 44 54 62 69 69 64 66 72 79 87 92 92 91 90 91 90 90 90 91 94 95 97 98 99 98
24 19 17 13 16 18 19 30 46 59 56 56 33 43 32 32 28 26 23 43 60 68 70 64 61 71 74 84 90 89 90 90 91 91 90 90 89 90 91 96 99 98 99 99
30 30 19 14 16 18 19 24 50 58 64 48 35 44 34 27 24 26 25 48 59 71 68 60 64 67 68 80 89 86 89 88 91 90 89 90 90 95 96 96 98 98 99 98
29 24 19 14 14 13 19 26 22 37 48 47 43 35 28 32 31 37 52 55 64 69 69 65 66 70 72 81 87 87 84 85 90 89 91 89 91 92 94 94 96 98 97 98
34 31 19 15 14 14 18 17 25 39 54 56 45 40 37 32 34 52 56 61 64 74 73 66 68 70 71 77 83 89 82 79 87 88 90 89 90 92 94 94 95 94 96 96
34 36 34 22 22 19 21 21 29 22 36 55 55 46 38 28 38 45 51 57 63 69 67 64 64 63 69 80 81 88 82 82 86 88 87 91 91 92 94 95 97 95 96 97
60 38 40 27 22 16 16 18 21 31 46 36 45 37 30 30 32 38 43 52 62 65 63 62 64 64 76 76 79 86 81 81 79 84 84 91 93 93 94 94 96 95 96 97
66 62 44 36 34 26 19 17 16 25 47 46 36 33 27 38 37 40 48 52 58 64 68 68 67 61 67 72 79 78 78 76 76 75 89 93 93 94 93 94 95 96 97 97
59 82 51 34 32 27 27 18 22 19 24 27 33 33 38 43 42 50 50 55 60 58 58 60 62 60 61 64 72 72 75 70 75 73 90 90 90 92 93 93 94 94 94 96
69 84 69 47 23 22 28 20 17 24 22 28 25 28 31 42 45 46 46 56 57 58 56 56 58 62 63 69 71 69 71 70 74 76 86 82 86 88 93 93 94 94 93 94
70 77 72 60 31 22 22 26 16 17 19 24 31 28 28 35 42 50 48 48 50 52 50 50 50 56 60 58 64 65 68 70 70 77 80 79 80 84 90 93 93 94 95 96
64 81 58 76 35 27 31 21 23 21 22 21 31 28 33 38 40 45 49 43 44 46 46 47 47 49 52 54 55 67 68 70 69 71 76 77 80 83 83 93 92 93 93 88
61 71 71 80 54 46 24 18 16 26 22 27 27 24 28 28 34 37 38 40 40 41 42 44 44 44 46 53 56 66 64 65 64 69 74 72 77 78 82 89 92 92 93 94
56 66 77 97 71 35 26 30 18 28 26 27 23 25 26 29 37 48 38 35 36 37 38 40 41 41 46 53 57 61 60 63 61 65 70 67 76 81 86 92 92 92 94 93
54 54 64 92 88 50 42 40 25 26 26 29 28 29 29 31 31 38 43 35 35 34 36 38 41 41 45 48 57 57 58 62 60 60 61 65 75 80 84 93 92 92 92 90
75 80 84 74 90 68 68 61 49 32 42 75 38 28 33 26 22 26 37 34 32 33 37 39 42 40 42 49 53 53 54 58 54 53 57 64 77 81 84 93 93 93 93 93
98 97 86 74 90 71 61 63 66 78 72 74 62 33 29 23 24 32 36 35 33 36 42 39 40 38 41 47 49 50 50 47 50 53 56 62 76 67 80 91 95 94 94 93
96 98 98 95 94 68 64 67 61 60 60 71 82 75 38 27 27 32 38 36 32 32 34 37 37 41 43 46 43 47 44 44 49 53 58 63 71 71 85 88 96 97 95 93
92 84 95 91 77 68 64 57 52 56 57 54 66 78 60 29 30 30 35 35 33 32 36 38 37 40 45 44 41 39 42 38 45 50 56 62 64 80 92 81 86 90 96 97
95 90 93 90 78 67 61 54 55 58 50 50 54 71 72 35 32 31 34 34 33 32 35 38 37 39 41 42 41 45 41 38 44 47 50 57 59 69 82 80 83 82 88 84
91 88 94 96 74 84 73 60 56 58 54 50 54 77 70 58 33 41 34 34 34 34 36 37 37 38 39 39 40 46 41 38 42 47 48 52 58 68 73 83 94 87 95 96

GFSCGP_sfc_rhum_024.txt.gz
RH
25 29 41 26 24 23 23 23 27 22 22 29 32 32 26 22 27 26 25 25 27 35 42 54 64 70 74 76 80 85 88 92 93 95 95 96 95 96 96 97 94 94 94 93
28 27 22 24 26 26 29 29 34 24 27 29 31 33 28 25 26 26 24 24 33 43 60 68 73 73 70 76 82 87 89 92 90 96 95 96 97 97 98 98 95 94 94 95
17 16 16 28 29 34 32 33 29 27 31 30 31 30 27 24 29 27 30 32 35 41 60 74 74 79 81 82 83 85 89 89 93 92 96 96 96 97 97 96 96 94 94 95
17 12 16 25 32 30 34 30 29 33 41 45 35 56 32 28 30 29 24 28 28 49 74 73 80 87 79 81 87 84 89 92 90 93 92 90 96 97 98 98 98 97 91 93
22 15 15 21 28 30 30 24 29 33 40 48 44 53 43 37 32 29 26 25 30 64 73 73 76 76 77 84 86 89 91 93 92 92 92 94 93 98 98 97 96 96 96 93
19 18 12 14 16 23 22 25 31 41 46 53 36 46 36 40 29 28 27 33 59 76 76 75 73 72 80 88 89 92 93 94 92 92 90 89 88 90 94 96 98 98 99 98
26 20 18 15 23 24 23 30 47 52 55 57 35 44 30 35 32 27 26 30 64 78 74 71 68 71 84 89 92 92 93 93 92 91 90 89 88 90 92 96 98 98 98 99
39 37 20 17 18 26 23 28 43 46 62 50 33 51 40 29 23 28 29 37 72 81 73 65 67 72 77 85 90 90 92 91 92 91 90 90 90 96 94 95 98 98 99 98
39 34 20 15 14 15 27 32 29 37 51 54 49 41 31 30 30 31 40 62 75 84 76 68 71 72 80 87 90 89 91 89 90 90 91 90 90 92 94 95 96 97 97 97
35 39 22 17 15 14 18 21 34 39 48 60 48 45 37 31 25 44 56 62 76 85 75 68 70 74 78 84 88 90 87 85 88 89 90 88 89 91 93 93 95 93 95 96
51 39 36 23 22 21 26 25 33 26 50 56 56 48 39 29 28 40 52 61 79 78 71 66 70 72 76 85 88 90 86 82 88 88 86 88 90 90 92 95 95 95 96 96
68 62 45 28 22 16 16 22 27 26 36 42 49 44 33 33 30 44 44 59 75 77 70 67 69 74 80 83 85 88 86 82 85 86 85 89 91 91 91 95 96 94 97 96
64 77 56 40 31 29 20 19 24 42 47 36 40 39 29 36 41 43 48 61 69 75 76 77 72 70 74 79 80 84 84 81 80 82 87 92 92 91 92 95 96 95 95 97
57 80 83 50 41 32 26 21 19 26 38 47 24 32 27 37 42 51 53 63 72 72 69 68 68 67 73 73 75 80 81 78 78 82 89 91 91 91 91 94 94 94 94 96
65 86 74 62 52 48 35 22 21 20 20 28 31 32 30 32 37 48 52 67 68 69 68 65 66 66 74 76 78 76 76 76 78 80 88 87 88 90 91 93 93 93 94 94
76 82 72 60 41 42 44 31 21 20 20 20 27 29 26 32 48 52 51 58 60 62 60 60 62 62 67 67 72 74 75 75 76 82 83 83 85 86 91 92 93 93 95 96
77 85 74 66 49 50 45 33 29 23 18 23 30 19 36 45 45 51 56 51 53 56 56 57 58 60 62 62 67 74 74 76 76 80 79 80 84 84 90 91 91 92 92 94
70 72 73 74 75 58 38 25 22 26 26 20 25 26 29 29 38 45 41 45 50 52 52 53 53 57 61 60 64 72 73 72 71 75 77 77 82 80 90 90 90 91 92 95
57 65 73 86 95 55 34 61 53 34 27 30 26 22 27 32 46 50 45 44 44 47 47 48 49 53 62 62 64 67 72 72 68 68 76 73 78 81 88 88 89 90 92 94
58 64 63 89 96 66 77 63 58 66 31 71 83 40 33 40 44 39 47 45 47 48 48 48 51 53 57 62 66 67 69 71 67 64 69 70 76 79 86 89 89 89 89 89
93 98 89 80 89 75 70 63 58 38 58 70 70 85 72 36 28 27 42 45 42 42 48 50 51 50 53 63 63 64 68 69 62 60 66 71 80 82 86 90 89 91 91 89
99 98 92 82 94 90 66 64 79 76 73 66 66 67 80 69 35 36 42 42 46 44 48 46 49 50 53 60 58 62 66 61 62 61 62 70 84 73 82 88 90 90 91 91
98 94 99 97 92 72 68 65 59 66 66 64 64 58 61 82 72 33 44 48 43 40 41 42 44 52 55 57 53 59 60 62 62 63 68 72 80 81 85 87 90 89 91 87
90 86 96 88 74 70 67 58 52 56 61 57 54 56 59 84 73 32 44 46 41 39 41 42 44 48 55 54 51 49 56 54 58 65 70 72 75 86 87 85 83 83 88 89
97 90 94 87 77 70 57 61 62 60 62 54 53 55 78 82 74 34 40 45 38 38 41 42 42 45 49 50 49 52 50 53 59 62 66 69 68 77 86 83 86 81 83 76
91 91 95 96 80 85 72 59 60 66 65 54 57 61 73 77 69 38 40 40 39 38 43 42 43 45 47 47 46 50 44 50 56 60 63 64 66 72 78 83 88 92 98 97

GFSCGP_sfc_rhum_030.txt.gz
RH
18 15 17 16 17 18 17 18 19 17 13 15 15 14 12 12 14 14 15 15 14 15 15 17 28 32 37 44 49 50 54 63 54 48 44 43 41 43 46 48 56 59 59 66
17 17 13 12 13 15 17 19 19 16 14 15 16 17 15 14 15 15 15 14 15 15 16 18 35 40 45 49 52 56 59 65 55 45 47 40 43 42 44 46 57 60 61 71
18 15 10 11 14 16 17 19 20 19 15 14 17 19 19 16 15 14 14 14 13 12 18 22 37 44 45 50 56 57 62 64 56 55 53 58 55 53 48 50 51 59 61 64
17 11 11 11 12 13 20 14 15 17 18 20 16 26 23 19 18 16 15 14 12 14 17 27 37 45 47 49 51 55 59 62 59 61 55 60 45 43 44 48 49 56 61 62
20 15 13 13 12 10 14 12 15 17 20 22 20 24 23 19 22 18 16 14 12 15 20 30 36 42 43 47 49 54 60 59 62 62 57 53 54 47 48 49 65 70 74 73
18 11 12 12 10 10 10 14 17 19 20 29 25 26 26 22 22 18 15 11 10 23 29 33 38 41 44 42 46 54 58 63 62 62 63 62 64 59 52 55 70 74 82 85
23 17 12 10 12 11 13 21 25 32 32 34 23 26 28 23 16 17 13 11 20 28 32 38 41 39 43 45 48 50 56 62 61 60 60 61 64 66 68 65 71 75 86 80
27 30 17 11 12 15 17 21 20 34 34 28 23 30 23 16 16 15 12 11 21 28 32 36 37 40 40 44 47 46 53 56 57 56 58 60 63 51 57 63 63 61 82 65
26 26 14 12 10 11 18 21 15 22 23 21 19 21 18 17 14 12 12 12 23 30 36 36 37 40 40 44 48 50 50 50 52 54 58 61 61 64 57 66 68 82 69 62
35 41 16 13 10 10 15 15 23 20 36 36 20 20 22 16 14 14 18 17 20 32 35 35 37 40 39 43 48 48 45 49 51 52 53 53 59 56 57 66 66 72 70 58
40 40 26 16 16 14 14 18 20 20 20 29 26 18 18 18 14 18 17 18 28 34 32 34 34 37 38 40 41 45 45 48 51 51 52 55 56 55 57 64 59 69 71 61
40 46 42 21 13 11 12 16 21 21 30 18 16 15 20 18 20 16 15 23 29 30 31 30 32 36 36 40 40 42 45 43 45 46 48 53 56 54 62 63 62 68 67 56
73 47 44 30 17 14 16 15 18 20 22 26 19 16 14 18 19 19 24 27 30 32 31 30 32 33 36 38 37 36 40 39 39 40 44 54 60 57 65 64 66 66 66 60
73 60 43 30 22 16 18 16 16 21 22 18 16 13 15 16 17 21 25 30 30 31 32 30 32 32 34 36 32 33 36 37 39 38 43 52 58 62 62 64 64 64 62 61
65 52 40 34 32 31 25 14 14 19 18 18 14 14 10 14 16 20 24 29 30 29 30 32 33 33 34 36 32 32 34 36 38 38 42 52 57 59 57 60 61 64 64 67
62 70 44 39 28 28 28 21 14 14 15 16 14 16 11 10 9 16 25 26 28 28 28 31 31 32 35 34 32 33 34 36 38 39 40 47 51 55 60 64 62 66 75 69
80 66 50 40 26 28 31 24 19 16 14 15 17 15 11 14 13 16 20 26 26 27 28 30 32 33 36 34 33 35 34 35 38 38 38 46 49 52 58 56 62 74 75 92
63 71 56 34 30 45 31 25 17 18 15 14 14 13 12 13 12 11 12 20 24 25 27 30 30 34 37 32 30 33 31 34 35 35 35 43 44 46 52 57 62 72 82 90
42 64 81 46 39 23 30 43 33 22 27 35 29 16 12 11 13 14 13 13 19 24 26 28 29 33 37 33 30 31 32 32 32 32 33 38 40 45 50 52 62 67 84 76
36 50 77 53 44 35 55 45 39 39 37 43 43 40 38 32 24 18 34 28 18 21 26 28 30 32 37 34 32 34 33 32 31 30 30 33 37 44 48 53 63 67 72 68
57 65 68 63 47 46 49 41 38 50 51 49 46 45 45 43 30 41 36 33 29 22 26 29 31 34 39 35 35 35 32 32 28 27 28 31 41 45 49 57 65 67 62 64
69 71 64 65 55 62 50 44 53 59 52 47 46 48 50 46 43 40 36 34 30 26 25 28 31 34 38 35 35 33 34 30 26 27 28 32 44 39 45 56 63 63 65 69
95 85 81 56 91 61 54 53 46 46 48 45 45 44 46 46 45 41 41 38 32 27 26 26 29 35 37 35 32 33 33 29 27 30 33 36 41 42 45 52 61 57 64 53
64 63 78 62 53 50 59 48 44 44 46 42 40 41 44 47 44 43 40 37 33 25 27 27 28 32 37 35 32 30 30 27 28 34 37 38 42 46 48 40 43 44 49 44
95 93 79 57 51 52 57 56 47 48 44 41 39 37 40 42 45 43 40 37 33 25 25 26 28 30 33 34 31 29 27 26 32 37 38 40 37 46 48 44 36 33 44 41
77 79 91 94 56 58 59 53 47 54 48 41 41 39 36 37 43 44 43 39 34 26 23 26 29 29 29 30 29 28 26 27 34 39 36 35 30 39 36 42 44 94 90 76

GFSCGP_sfc_rhum_033.txt.gz
RH
19 19 16 13 14 14 14 15 17 15 12 15 16 16 14 12 11 11 11 12 14 15 13 12 14 26 28 34 44 50 51 61 57 50 44 42 41 43 38 40 45 50 53 58
19 22 14 10 9 11 13 14 16 15 13 15 16 16 13 12 13 12 12 13 14 14 13 12 20 31 36 43 49 52 52 62 59 48 50 39 40 34 38 38 46 50 53 69
20 17 12 10 10 12 13 16 18 18 15 14 16 18 17 13 12 12 12 12 13 14 14 13 24 35 39 46 51 53 57 64 60 55 48 49 48 48 43 43 46 52 59 65
18 12 13 13 12 10 15 11 13 16 18 21 15 22 18 14 13 13 13 14 14 13 13 12 27 38 42 44 47 54 60 62 52 57 57 63 45 41 39 43 38 49 55 61
18 16 14 15 13 10 12 10 13 15 18 19 16 18 16 13 14 15 15 14 15 14 11 15 27 35 38 44 48 55 60 58 60 59 55 52 53 38 40 41 52 62 69 66
14 11 13 12 11 10 9 10 13 15 16 23 19 18 18 15 15 15 15 14 13 11 11 20 28 36 40 41 47 54 58 59 59 55 55 61 56 52 47 49 54 69 86 82
15 14 12 12 13 11 11 15 19 23 22 25 16 18 19 16 14 15 16 15 11 10 20 27 34 36 41 44 47 50 54 60 58 56 55 56 59 60 60 60 77 74 82 79
16 18 16 13 13 14 14 15 17 30 25 19 15 22 17 15 14 15 14 12 10 20 23 30 33 36 37 43 46 46 53 55 54 52 53 54 56 48 53 62 72 77 65 80
27 14 10 12 11 11 14 15 12 17 15 14 14 16 16 16 15 14 14 14 13 23 28 31 32 35 38 42 46 48 50 50 50 49 52 53 54 56 57 62 72 70 70 60
44 40 11 12 12 11 13 10 17 16 27 26 18 19 18 16 13 14 12 11 14 24 28 29 32 36 37 41 44 46 46 47 46 46 48 49 66 54 51 66 70 66 67 51
41 59 33 12 17 16 12 13 15 16 15 21 25 22 15 15 15 14 12 12 14 26 27 30 31 34 35 38 39 45 41 42 45 44 45 53 63 52 53 66 62 66 63 55
33 64 56 26 13 11 11 14 17 19 26 17 20 19 12 14 13 14 14 14 16 25 26 27 29 32 35 38 40 40 41 39 40 40 42 47 62 48 64 63 66 65 61 50
56 57 52 53 32 15 14 12 14 20 21 25 19 19 10 14 17 13 16 17 25 26 26 27 29 31 34 36 36 35 36 36 36 36 38 48 56 62 66 66 63 63 62 48
80 61 63 73 38 16 18 13 13 20 23 21 18 15 14 16 18 18 22 26 25 25 27 26 29 30 32 33 30 31 32 32 34 33 38 46 66 59 63 62 63 71 63 56
95 62 41 49 61 38 14 13 12 18 18 20 18 16 13 16 17 18 24 24 24 24 25 28 29 30 32 32 29 29 30 32 33 33 38 47 64 54 62 57 59 64 62 58
87 78 44 39 55 43 20 13 12 13 16 15 13 16 9 12 10 16 20 22 24 24 23 26 27 29 32 31 27 30 31 32 32 35 37 43 58 52 63 63 59 66 62 66
67 78 45 75 54 44 29 19 14 14 14 15 16 13 10 11 11 13 20 22 22 23 22 26 27 30 32 29 28 31 31 31 33 34 37 41 55 55 68 59 60 68 74 80
52 70 56 55 61 78 24 16 14 13 13 13 14 13 10 11 12 12 14 20 21 21 22 25 26 30 32 28 26 29 28 30 30 32 35 38 39 52 61 69 67 76 79 89
36 55 87 73 71 37 36 25 19 18 16 15 14 12 10 10 11 16 24 21 20 21 22 24 25 30 32 29 27 28 29 28 28 29 33 35 34 49 60 61 76 80 70 79
29 42 78 65 83 63 83 33 29 28 39 36 31 28 30 24 17 34 34 27 26 18 21 24 25 29 33 30 28 30 28 27 28 26 28 32 33 39 45 52 77 79 77 79
39 51 62 58 54 63 47 34 30 37 66 43 37 37 36 36 29 38 32 29 26 24 21 24 26 30 35 30 30 30 29 28 25 24 25 31 35 42 48 55 78 79 71 77
54 66 49 49 58 98 47 40 46 57 46 42 40 40 42 40 36 34 30 29 26 24 20 23 27 30 34 29 29 30 31 26 22 24 25 31 39 36 44 56 67 74 79 80
83 74 73 61 84 74 48 51 46 45 46 41 41 39 38 39 37 34 33 31 28 24 21 21 26 31 34 30 28 30 30 25 22 26 29 33 41 36 45 52 62 72 66 50
93 68 65 57 76 58 48 43 42 41 44 40 38 38 35 38 36 36 33 31 28 23 23 22 25 29 35 31 27 27 26 23 23 28 33 35 42 40 44 39 44 42 43 37
88 80 66 74 74 55 51 48 42 40 39 38 35 36 34 34 34 35 34 33 28 25 22 22 25 28 32 30 27 24 24 23 27 31 33 37 37 44 43 37 38 35 42 43
70 77 92 96 72 62 53 41 41 42 43 38 37 37 33 31 33 34 35 34 32 26 21 23 25 27 28 28 26 23 22 23 30 36 31 31 31 38 39 36 36 95 85 86

GFSCGP_sfc_rhum_036.txt.gz
RH
16 21 22 18 16 14 18 19 19 17 13 15 17 17 15 14 14 15 16 16 16 16 15 18 23 35 40 44 55 67 69 74 73 71 69 67 64 70 66 67 64 63 66 67
19 23 19 14 12 13 13 17 18 15 12 14 15 16 15 15 15 14 16 16 17 16 19 20 26 44 48 57 64 68 69 77 74 72 74 65 67 60 62 64 69 66 66 74
22 17 15 16 15 14 14 15 17 17 14 12 14 18 19 15 14 14 14 15 16 17 17 18 26 48 50 58 65 66 71 76 74 73 73 76 72 72 69 68 70 71 66 70
18 15 13 15 17 14 17 11 11 13 15 20 14 24 23 18 17 16 15 15 15 16 17 19 29 50 54 55 58 65 72 76 72 75 73 78 74 72 69 70 77 80 69 71
14 16 17 16 14 14 15 10 11 12 15 18 16 21 20 17 17 15 15 14 15 16 18 20 39 46 47 54 60 68 74 74 73 74 74 75 77 70 68 67 70 75 79 77
12 9 10 15 12 11 12 12 13 14 14 24 21 21 21 18 17 15 14 13 13 16 16 19 39 44 49 51 59 69 73 74 72 73 75 78 78 75 74 73 82 79 83 92
20 14 10 9 14 12 13 21 25 25 22 26 17 19 21 18 14 13 15 14 15 17 16 34 42 43 51 55 62 66 68 74 72 70 71 70 75 73 73 74 85 82 89 89
48 41 12 10 13 17 15 20 21 32 26 20 15 23 18 15 12 13 14 16 17 17 28 36 40 46 46 55 61 61 66 69 68 67 69 72 73 72 78 84 82 89 91 89
58 43 20 9 11 13 17 18 15 22 16 16 14 15 16 14 14 14 15 17 20 27 34 38 40 46 49 56 60 61 64 64 64 65 71 72 72 72 76 84 82 90 83 80
46 60 31 24 8 11 16 12 21 19 30 30 17 19 16 19 18 16 18 19 20 30 33 36 40 46 48 52 58 61 60 61 60 62 65 63 71 62 75 80 81 81 82 75
40 62 49 30 16 15 16 16 16 19 17 24 27 19 17 22 18 16 17 17 20 30 32 36 39 43 44 48 48 58 56 56 58 60 64 74 70 69 76 81 77 80 79 72
43 68 59 39 21 12 15 16 18 21 29 19 19 18 17 15 14 15 16 14 23 29 32 33 36 40 43 47 49 54 55 49 52 52 55 72 69 76 78 78 77 78 75 68
78 62 62 49 35 31 27 16 18 22 26 27 20 20 15 14 14 14 17 14 26 30 32 34 36 38 42 44 46 43 46 46 45 44 53 72 76 77 76 75 75 73 73 73
72 79 65 73 74 79 58 22 16 20 24 22 18 19 15 15 18 18 20 25 28 31 35 34 36 38 40 42 39 39 41 41 42 41 50 72 76 76 80 78 76 73 68 70
93 91 59 46 59 79 83 54 17 17 19 23 19 16 15 18 19 24 27 29 30 31 31 35 37 38 39 41 38 36 36 38 42 40 54 72 70 73 70 73 76 74 73 72
87 97 70 54 38 71 80 48 35 13 15 17 19 19 20 23 18 24 27 27 29 29 28 32 34 36 38 38 34 37 38 39 40 44 54 67 60 74 73 72 78 79 75 79
55 90 80 65 47 65 69 43 35 22 14 16 21 24 20 21 14 22 26 26 27 28 28 31 33 36 40 36 37 40 39 38 40 42 49 59 62 66 68 72 74 83 87 88
50 55 74 78 84 89 48 22 20 16 15 15 18 17 15 16 15 26 22 23 26 26 27 31 32 39 41 34 33 38 35 36 36 39 43 51 53 61 65 75 80 88 90 93
37 48 84 84 83 74 56 41 27 19 26 34 22 13 12 13 30 38 30 30 26 28 28 31 32 38 41 35 36 35 36 34 34 36 41 45 50 64 66 76 86 85 85 92
28 40 75 74 92 94 82 54 36 28 55 40 34 29 31 27 21 42 36 34 33 36 28 30 31 36 41 39 38 39 36 33 34 32 36 36 51 61 72 81 88 88 90 92
39 59 72 71 92 99 73 56 40 50 72 43 39 39 41 44 42 43 34 34 33 30 29 30 33 38 44 39 40 39 37 35 31 28 33 36 48 60 68 82 88 88 88 88
82 69 67 54 70 95 69 54 73 77 60 48 42 42 43 40 35 35 32 35 33 30 27 27 33 40 42 37 39 38 42 33 28 28 31 41 55 46 57 80 82 80 87 90
95 94 99 92 96 92 91 69 65 54 49 46 45 41 38 38 37 34 35 35 32 30 31 24 31 41 42 37 36 39 41 31 28 32 40 49 50 56 61 74 81 77 82 82
76 66 95 88 87 91 85 67 49 46 44 41 43 43 36 38 35 36 33 31 29 26 27 25 30 38 43 37 35 37 34 27 28 39 46 52 52 59 60 61 68 64 70 82
81 80 72 83 77 75 58 56 41 44 40 38 37 39 37 34 35 35 34 33 29 27 24 26 30 36 40 35 33 33 30 28 36 44 46 52 48 56 57 58 62 57 72 66
74 76 81 77 54 56 49 44 42 46 42 38 37 38 37 32 34 33 35 35 33 28 26 26 32 36 36 33 31 29 26 29 40 47 44 44 45 49 46 55 59 97 87 85